Location: Unspecified
(40.7945°N, 111.1337°W)
Time: 11:41:31
(UTC-06:00)

Altair - Pass Details

Date: 04 July 2019
Orbit: 1501 x 1683 km, 47.2° (Epoch: 24 August)

Event Time Altitude Azimuth Distance (km) Brightness Sun altitude
Rises 00:00:24 0° 298° (WNW) 4,762 10.8 -23.1°
Reaches altitude 10° 00:03:27 10° 296° (WNW) 3,799 10.2 -23.3°
Maximum altitude 00:13:04 69° 216° (SW) 1,727 7.5 -23.9°
Enters shadow 00:17:37 37° 145° (SE) 2,378 8.0 -24.2°
